Volver al catálogo

STARLINK-2442

ActivoComunicacionesVLEO
NORAD 48106·PAYLOAD·🇺🇸 United States

Lanzado Apr 7, 2021 desde Cape Canaveral Space Force Station

Loading…

Próximos Pases (próximas 24 horas)

TLE

ActualizadoSource: CelesTrak SupGP

Época: Sep 15, 2026, 02:41 UTC

1 48106C 21027Q   26258.11229167  .00134420  00000+0  43275-2 0  2587
2 48106  53.1584 351.1285 0001244  97.8250  64.1854 15.31599162    15

Sigue STARLINK-2442 en tiempo real con AllMySat

Download on the App Store